Regional Weather Roundup
Issued by NWS New Orleans/Baton Rouge, LA

Home | Current Version | Previous Version | Text Only | Print | Product List | Glossary On
Versions: 1 2 3 4 5 6 7 8 9 10 11 12 13 14 15 16 17 18 19 20 21 22 23 24 25 26 27 28 29 30 31 32 33 34 35 36 37 38 39 40 41 42 43 44 45 46 47 48 49 50
661
ASUS44 KLIX 241310
RWRLIX
NEW ORLEANS REGIONAL WEATHER ROUNDUP
NATIONAL WEATHER SERVICE NEW ORLEANS LA
800 AM CDT THU APR 24 2014

NOTE: "FAIR" INDICATES FEW OR NO CLOUDS BELOW 12,000 FEET WITH NO
      SIGNIFICANT WEATHER AND/OR OBSTRUCTIONS TO VISIBILITY.
      SKY/WX - SKY CONDITION AND SIGNIFICANT WEATHER.
      TMP - AIR TEMPERATURE.     DP    - DEWPOINT TEMPERATURE.
      RH  - RELATIVE HUMIDITY.   PRES  - PRESSURE.
      HI  - HEAT INDEX.          WCI   - WIND CHILL INDEX.

*  THESE STATIONS ARE NOT NWS OR FAA STATIONS AND ARE NOT UNDER
   NWS QUALITY CONTROL.

LAZ038-040-048-061>063-065>067-069-241400-
SOUTHEAST LOUISIANA

CITY           SKY/WX    TMP DP  RH WIND       PRES   REMARKS
N.O. AUDUBON     N/A     71  65  82 MISG        N/A
N.O. INTL ARPT FOG       67  67 100 SE3       29.96R VSB 3/4
N.O. LAKEFRONT MOSUNNY   69  67  93 S5        29.96R FOG
N.O. DOWNTOWN* PTSUNNY   70  63  78 S3        29.96R
SLIDELL        CLOUDY    63  61  93 CALM      29.96R FOG
BATON ROUGE    FOG       65  63  93 E5        29.95R VSB<1/4
BOOTHVILLE     MOSUNNY   69  66  90 E3        29.97R FOG
BELLE CHASSE   PTSUNNY   66  64  94 CALM      29.95R FOG
BOGALUSA*      FOG       62  59  91 W5        29.98R VSB<1/4
GALLIANO*      SUNNY     66  64  94 CALM      29.95R FOG
NEW ROADS*     FOG       65  64  97 E5        29.95R VSB<1/4
GONZALES*      FOG       63  63 100 CALM      29.95R VSB<1/4
HAMMOND*       PTSUNNY   64  61  88 CALM      29.97R FOG
HOUMA*         MOSUNNY   64  63  94 CALM      29.95R FOG
PORT FOURCHON* MOSUNNY   72  68  88 SE6       29.97R

$$

MSZ070-080>082-241400-
SOUTHERN MISSISSIPPI

CITY           SKY/WX    TMP DP  RH WIND       PRES   REMARKS
MCCOMB         SUNNY     63  61  93 CALM      29.97R FOG
GULFPORT       PTSUNNY   67  64  90 CALM      29.96R FOG
BILOXI         SUNNY     70  69  98 CALM      29.97R
PASCAGOULA     FOG       63  63 100 CALM      29.97R VSB 1/4
STENNIS ARPT*  FOG       55  54  94 CALM      29.96R VSB 1/2

$$

COASTAL OBSERVATIONS
LAKE AND NEARSHORE STATIONS

STATION/POSITION TIME  TEMP    WIND        PRES    WAVE
                       AIR SEA DIR/SP/G            HT/PER
                 (UTC) (F)     (DEG/KT/KT) (MB)    (FT/S)
PASCAGOULA       1300   68     190/  1/  2 1014.2
WAVELAND YACHT   1300   70 74   90/  3/  4 1013.6
GRAND ISLE       1300   71 72  160/  3/  6 1014.7
SOUTHWEST PASS   1300   67 60  150/  4/  5 1014.8
NEW CANAL        1300   69 70  150/  1/  2 1014.7
SHELL BEACH      1300   70 68  160/  4/  5 1014.2

OFFSHORE STATIONS

STATION/POSITION TIME  TEMP    WIND        PRES    WAVE
                       AIR SEA DIR/SP/G            HT/PER
                 (UTC) (F)     (DEG/KT/KT) (MB)    (FT/S)
64 S DAUPHIN ISL 1206   70 71  150/  2/  2 1015.0

$$




USA.gov is the U.S. government's official web portal to all federal, state and local government web resources and services.